Other Public Products
Issued by NWS Charleston, SC

Home | Current Version | Previous Version | Text Only | Print | Product List | Glossary On
Versions: 1 2 3 4 5 6 7 8 9 10 11 12 13 14 15 16 17 18 19 20 21 22 23 24 25 26 27 28 29 30 31 32 33 34 35 36 37 38 39 40 41 42 43 44 45 46 47 48 49 50
199
FPUS82 KCHS 251127
OPUCHS

TEST...KCHS/KSAV Gateway Observations...TEST
National Weather Service Charleston SC
700 AM EDT SUN JUN 25 2017

NOTE: "fair" indicates few or no clouds below 12,000 feet with no
significant weather and/or obstructions to visibility.

SCZ050-WAZ558-NCZ071-TXZ119-213-PAZ071-DCZ001-FLZ074-172-MI076-
NYZ176-178-MAZ016-IL014-TNZ027-NJZ106-GAZ044-MD014-251200-

...Gateway Observations for Charleston International...

CITY           SKY/WX    TMP DP  RH WIND       PRES   REMARKS
Chas Airport   PTCLDY    78  73  84 W5        30.05R
Seattle        CLEAR     69  47  45 N12       29.95S
Charlotte      MOCLDY    69  66  90 CALM      30.07R
Dallas DFW     CLOUDY    74  65  73 NE5       30.18R
Dallas Love    MOCLDY    75  63  66 E7        30.18S
Philladelphia  PTSUNNY   72  60  66 CALM      29.99R
Wash National  PTSUNNY   75  61  61 NW6       30.01R
Baltimore      PTSUNNY   69  63  81 CALM      30.00R
Miami          PTCLDY    82  73  74 SE6       30.09R
Detroit        MOCLDY    59  51  75 W9        30.01R
Newark         MOSUNNY   72  59  63 E3        29.97R
Laguardia      MOSUNNY   73  61  65 CALM      29.97R
J F K          MOSUNNY   74  62  66 CALM      29.98R
Boston Logan   MOSUNNY   70  53  54 W12       29.93R
Ft. Lauderdale PTCLDY    82  76  81 S6        30.09R
Chicago O`Hare PTCLDY    55  48  77 W8        30.07R
Chicago Midway CLEAR     56  48  74 SW8       30.08R
Houston Bush   TSTM      71  67  87 NE6       30.10F FOG
Houston Hobby  CLOUDY    75  71  87 N13       30.09R THUNDER
Nashville      CLOUDY    62  57  83 CALM      30.21R
Atlanta        CLOUDY    68  65  90 NW8       30.10R

$$

GAZ044-118-TXZ119-213-NCZ071-DCZ001-MDZ014-506-PAZ021-071-NJZ106-
NYZ176-178-MAZ106-OHZ011-021-055-MIZ076-KYZ091-ILZ014-INZ047-
MNZ060-ONZ431-251200-

...Gateway Observations for Savannah International...

CITY           SKY/WX    TMP DP  RH WIND       PRES   REMARKS
Savannah Arpt  MOCLDY    76  73  91 CALM      30.05S
Atlanta        CLOUDY    68  65  90 NW8       30.10R
Charlotte      MOCLDY    69  66  90 CALM      30.07R
Dallas DFW     CLOUDY    74  65  73 NE5       30.18R
Houston Bush   TSTM      71  67  87 NE6       30.10F FOG
Wash National  PTSUNNY   75  61  61 NW6       30.01R
Wash Dulles    PTSUNNY   66  62  87 SW3       30.02R
Baltimore      PTSUNNY   69  63  81 CALM      30.00R
Philadelphia   PTSUNNY   72  60  66 CALM      29.99R
Newark         MOSUNNY   72  59  63 E3        29.97R
Laguardia      MOSUNNY   73  61  65 CALM      29.97R
J F K          MOSUNNY   74  62  66 CALM      29.98R
Boston         MOSUNNY   70  53  54 W12       29.93R
Pittsburg      PTSUNNY   60  57  89 W3        30.05R
Akron          MOSUNNY   59  52  77 SW6       30.05R
Cleveland      PTCLDY    61  53  75 SW6       30.04R
Cincinnati     PTCLDY    54  52  93 SW3       30.14R
Columbus       CLEAR     57  53  86 SW5       30.11R
Detroit        MOCLDY    59  51  75 W9        30.01R
Chicago O`Hare PTCLDY    55  48  77 W8        30.07R
Minneapolis    CLOUDY    55  48  77 NW17      30.10R
Indianapolis   PTCLDY    56  48  74 SW9       30.12R
Toronto Canada MOSUNNY   61  55  82 W7        29.92S

$$




USA.gov is the U.S. government's official web portal to all federal, state and local government web resources and services.